Weather History for Ithaca, NY

Change the Weather History Date:

Saturday, February 16, 2013

  Actual Average Record
Temperature  
Mean Temperature 19 °F -  
Max Temperature 26 °F 32 °F 65 °F (1949)
Min Temperature 12 °F 16 °F -15 °F (1987)
Degree Days  
Heating Degree Days 46    
Moisture  
Dew Point 13 °F    
Average Humidity 71    
Maximum Humidity 84    
Minimum Humidity 58    
Precipitation  
Precipitation 0.00 in - - ()
Sea Level Pressure  
Sea Level Pressure 30.00 in    
Wind  
Wind Speed 7 mph (NNW)    
Max Wind Speed 15 mph    
Max Gust Speed -    
Visibility 9 miles    
Events Snow    
Averages and records for this station are not official NWS values.
T = Trace of Precipitation, MM = Missing Value Source: NWS Daily Summary

Daily Weather History Graph

Daily Weather History Graph

Search for Another Location

Airport:

Trip Planner

Search our weather history database for the weather conditions in past years. The results will help you decide how hot, cold, wet, or windy it might be!

Date:

Astronomy

Feb. 16, 2013 Rise Set
Actual Time 7:00 AM EST 5:39 PM EST
Civil Twilight 6:31 AM EST 6:08 PM EST
Nautical Twilight 5:59 AM EST 6:41 PM EST
Astronomical Twilight 5:26 AM EST 7:13 PM EST
Moon 10:03 AM EST (2/16) No Moon Set
Length of Visible Light 11h 36m
Length of Day
10h 38m
Waxing Crescent, 39% of the Moon is Illuminated
Feb 16
Waxing Crescent
Feb 17
First Quarter
Feb 25
Full
Mar 4
Last Quarter
Mar 11
New

Hourly Weather History & Observations

Time (EST) Temp. Windchill Dew Point Humidity Pressure Visibility Wind Dir Wind Speed Gust Speed Precip Events Conditions
12:56 AM 26.1 °F 16.8 °F 20.1 °F 78% 30.04 in 10.0 mi NNW 9.2 mph - 0.00 in Snow Light Snow
1:56 AM 25.2 °F 16.5 °F 16.2 °F 69% 30.04 in 10.0 mi NNW 8.1 mph - 0.00 in Snow Light Snow
2:22 AM 24.8 °F 16.9 °F 15.8 °F 69% 30.00 in 10.0 mi NW 6.9 mph - 0.00 in   Overcast
2:35 AM 24.8 °F 16.1 °F 15.8 °F 69% 30.00 in 10.0 mi NW 8.1 mph - 0.00 in   Overcast
2:56 AM 24.1 °F 12.0 °F 14.0 °F 65% 30.04 in 10.0 mi NW 13.8 mph - 0.00 in   Overcast
3:10 AM 24.8 °F 12.4 °F 12.2 °F 59% 30.00 in 10.0 mi NW 15.0 mph - 0.00 in   Overcast
3:56 AM 23.0 °F 12.4 °F 11.1 °F 60% 30.04 in 10.0 mi NW 10.4 mph - 0.00 in   Overcast
4:56 AM 20.1 °F 12.3 °F 10.0 °F 65% 30.03 in 10.0 mi NNW 5.8 mph - N/A   Overcast
6:17 AM 21.2 °F 12.6 °F 15.8 °F 80% 29.99 in 10.0 mi WNW 6.9 mph - 0.00 in Snow Light Snow
6:27 AM 21.2 °F 13.6 °F 15.8 °F 80% 29.99 in 10.0 mi WNW 5.8 mph - 0.00 in   Overcast
6:56 AM 22.1 °F 15.9 °F 15.1 °F 74% 30.04 in 10.0 mi WNW 4.6 mph - 0.00 in   Overcast
7:56 AM 22.1 °F 17.4 °F 14.0 °F 71% 30.05 in 10.0 mi WNW 3.5 mph - 0.00 in   Overcast
8:56 AM 23.0 °F 13.1 °F 11.1 °F 60% 30.04 in 10.0 mi NW 9.2 mph - 0.00 in Snow Light Snow Showers
9:20 AM 23.0 °F 14.7 °F 12.2 °F 63% 30.00 in 10.0 mi WNW 6.9 mph - 0.00 in Snow Light Snow
9:56 AM 22.1 °F 11.3 °F 16.2 °F 78% 30.05 in 7.0 mi North 10.4 mph - 0.00 in Snow Light Snow
10:56 AM 23.0 °F 13.9 °F 17.1 °F 78% 30.04 in 5.0 mi NNW 8.1 mph - 0.00 in Snow Light Snow
11:13 AM 23.0 °F 13.9 °F 17.6 °F 80% 29.98 in 2.5 mi NW 8.1 mph - 0.00 in Snow Light Snow
11:56 AM 24.1 °F 17.0 °F 16.2 °F 72% 30.02 in 10.0 mi WNW 5.8 mph - 0.00 in Snow Light Snow
12:56 PM 23.0 °F 17.0 °F 12.0 °F 63% 29.99 in 7.0 mi NE 4.6 mph - 0.00 in Snow Light Snow
1:56 PM 24.1 °F 16.0 °F 17.1 °F 75% 29.97 in 2.5 mi NW 6.9 mph - 0.00 in Snow Light Snow
2:31 PM 23.0 °F 14.7 °F 15.8 °F 74% 29.93 in 5.0 mi NNW 6.9 mph - 0.00 in Snow Light Snow
2:56 PM 24.1 °F 15.2 °F 14.0 °F 65% 29.97 in 10.0 mi North 8.1 mph - 0.00 in Snow Light Snow
3:56 PM 23.0 °F 15.8 °F 14.0 °F 68% 29.97 in 10.0 mi NNE 5.8 mph - 0.00 in   Mostly Cloudy
4:56 PM 23.0 °F 17.0 °F 10.0 °F 58% 29.97 in 10.0 mi North 4.6 mph - N/A   Scattered Clouds
5:56 PM 22.1 °F 15.9 °F 11.1 °F 63% 29.99 in 10.0 mi NNE 4.6 mph - N/A   Scattered Clouds
6:56 PM 20.1 °F 13.6 °F 10.0 °F 65% 29.99 in 10.0 mi NE 4.6 mph - N/A   Clear
7:56 PM 18.1 °F 12.9 °F 10.0 °F 71% 29.98 in 10.0 mi NNE 3.5 mph - N/A   Clear
8:56 PM 14.0 °F - 9.1 °F 81% 29.96 in 10.0 mi Calm Calm - N/A   Scattered Clouds
9:56 PM 14.0 °F - 9.1 °F 81% 29.96 in 10.0 mi Calm Calm - N/A   Clear
10:56 PM 12.0 °F 5.9 °F 8.1 °F 84% 29.93 in 10.0 mi ENE 3.5 mph - N/A   Clear
11:56 PM 12.0 °F - 7.2 °F 81% 29.92 in 10.0 mi Calm Calm - N/A   Mostly Cloudy